Location: *
(50.0228°S, 177.2688°W)
Time: 22:44:03
(UTC+00:00)

STARLINK-1058 - Pass Details

Date: 07 April 2020
Orbit: 548 x 551 km, 53.0° (Epoch: 27 May)

Event Time Altitude Azimuth Distance (km) Brightness Sun altitude
Rises 06:35:20 0° 268° (W) 2,746 9.3 -12.5°
Reaches altitude 10° 06:37:37 10° 264° (W) 1,852 7.8 -12.8°
Maximum altitude 06:41:46 57° 184° (S) 667 4.1 -13.5°
Enters shadow 06:44:29 20° 111° (ESE) 1,312 5.0 -13.9°
